Location: Hawaiian Village Mobile Home Park
(32.8359°N, 116.9792°W)
Time: 04:20:03
(UTC+00:00)

ADEOS - Pass Details

Date: 08 December 2021
Orbit: 792 x 795 km, 98.9° (Epoch: 23 January)

Event Time Altitude Azimuth Distance (km) Brightness Sun altitude
Rises 12:36:25 0° 24° (NNE) 3,298 6.9 -25.0°
Reaches altitude 10° 12:38:57 10° 33° (NNE) 2,364 6.3 -24.4°
Maximum altitude 12:43:41 35° 99° (E) 1,263 5.2 -23.5°
Drops below altitude 10° 12:48:24 10° 164° (SSE) 2,350 6.4 -22.5°
Sets 12:50:54 0° 173° (S) 3,275 7.0 -22.0°
